Regional Weather Roundup
Issued by NWS Charleston, WV

Home | Current Version | Previous Version | Graphics & Text | Print | Product List | Glossary On
Versions: 1 2 3 4 5 6 7 8 9 10 11 12 13 14 15 16 17 18 19 20 21 22 23 24 25 26 27 28
000
ASUS41 KRLX 162210
RWRRLX
West Virginia Regional Weather Roundup
National Weather Service Charleston WV
600 PM EDT WED APR 16 2014

Note: "fair" indicates few or no clouds below 12,000 feet with no
significant weather and/or obstructions to visibility.

WVZ003-162300-
Northern Panhandle of West Virginia

CITY           SKY/WX    TMP DP  RH WIND       PRES   REMARKS
WHEELING       SUNNY     42  15  33 E12       30.39S
$$

WVZ009-162300-
Northwest West Virginia

CITY           SKY/WX    TMP DP  RH WIND       PRES   REMARKS
PARKERSBURG    SUNNY     49  18  29 E10       30.37F
$$

WVZ006-162300-
Western West Virginia

CITY           SKY/WX    TMP DP  RH WIND       PRES   REMARKS
HUNTINGTON     SUNNY     52  20  28 NE8       30.30F
$$

WVZ015-162300-
West Central West Virginia

CITY           SKY/WX    TMP DP  RH WIND       PRES   REMARKS
CHARLESTON     MOSUNNY   52  19  27 NE7       30.31F
$$

WVZ031-162300-
North Central West Virginia

CITY           SKY/WX    TMP DP  RH WIND       PRES   REMARKS
CLARKSBURG     SUNNY     47  17  30 NE7       30.36F
MORGANTOWN     SUNNY     47  16  29 N6        30.38F
$$

WVZ035-042-045-162300-
South Central West Virginia

CITY           SKY/WX    TMP DP  RH WIND       PRES   REMARKS
BECKLEY        SUNNY     49  18  29 SE9       30.29S
BLUEFIELD      SUNNY     52  15  23 E9        30.28S
LEWISBURG      SUNNY     50  16  25 E7        30.31R
$$

WVZ047-162300-
Northern Mountains of West Virginia

CITY           SKY/WX    TMP DP  RH WIND       PRES   REMARKS
ELKINS         SUNNY     50  21  32 VRB6      30.32F
$$

WVZ052-162300-
Eastern Panhandle of West Virginia

CITY           SKY/WX    TMP DP  RH WIND       PRES   REMARKS
MARTINSBURG    SUNNY     48  12  23 VRB6      30.44R
PETERSBURG     SUNNY     52  20  29 E6        30.39F
$$



USA.gov is the U.S. government's official web portal to all federal, state and local government web resources and services.